Regional Weather Roundup
Issued by NWS

Home | Current Version | Previous Version | Text Only | Print | Product List | Glossary Off
Versions: 1 2 3 4 5 6 7 8 9 10 11 12 13 14 15 16 17 18 19 20 21 22 23 24 25 26 27 28 29 30 31 32 33 34 35 36 37 38 39 40 41 42 43 44 45 46 47 48 49 50

000
ASUS44 KOUN 291910
RWROK

WEATHER ROUNDUP FOR OKLAHOMA
NATIONAL WEATHER SERVICE NORMAN OK
200 PM CDT WED MAR 29 2017

NOTE: "FAIR" INDICATES FEW OR NO CLOUDS BELOW 12,000 FEET WITH NO
      SIGNIFICANT WEATHER AND/OR OBSTRUCTIONS TO VISIBILITY.

OKZ001>007-009>012-014-015-017-292000-
NORTHWEST OKLAHOMA AND THE PANHANDLE

CITY           SKY/WX    TMP DP  RH WIND       PRES   REMARKS
GUYMON         LGT RAIN  44  42  93 N25G32    29.88S WCI  35
ENID/WOODRING  CLOUDY    59  52  77 MISG      29.64S
$$

OKZ016-021>023-033>039-044-045-292000-
SOUTHWEST OKLAHOMA

CITY           SKY/WX    TMP DP  RH WIND       PRES   REMARKS
LAWTON/REGL    CLOUDY    60  53  77 N9        29.73R
LAWTON/FT SILL CLOUDY    59  54  82 NW10      29.72R
FREDERICK      CLOUDY    55  50  83 N23G30    29.73R
CLINTON        LGT RAIN  51  46  83 NW17G26   29.77R
HOBART         CLOUDY    56  47  71 N24       29.76R
ALTUS AFB      CLOUDY    55  46  71 N20       29.76R
$$

OKZ018>020-024>031-292000-
CENTRAL OKLAHOMA

CITY           SKY/WX    TMP DP  RH WIND       PRES   REMARKS
OKLAHOMA CITY  LGT RAIN  54  51  90 W12       29.71R
OKC/WILEY POST LGT RAIN  55  53  93 W8        29.71R
OKC/TINKER AFB DRIZZLE   55  54  94 W12       29.69S
STILLWATER     CLOUDY    58  52  80 SW15      29.67S
GUTHRIE        LGT RAIN  55  52  89 SW8       29.69R
$$

OKZ008-013-054>072-292000-
NORTHEAST OKLAHOMA

CITY           SKY/WX    TMP DP  RH WIND       PRES   REMARKS
TULSA          PTSUNNY   71  55  56 S25G32    29.63R
TULSA/JONES    PTSUNNY   73  56  54 S15G28    29.64S
PONCA CITY     CLOUDY    62  53  72 S9G22     29.63F
BARTLESVILLE   CLOUDY    66  55  67 SW14G22   29.66R
MUSKOGEE       CLOUDY    73  56  54 S22G30    29.70R
$$

OKZ032-040>043-046>053-073>077-292000-
SOUTH CENTRAL/SOUTHEAST OKLAHOMA

CITY           SKY/WX    TMP DP  RH WIND       PRES   REMARKS
ARDMORE/DWNTWN MOSUNNY   75  41  29 W15G23    29.68S
MCALESTER      MOSUNNY   75  55  49 S18G30    29.69F
$$





USA.gov is the U.S. government's official web portal to all federal, state and local government web resources and services.